Showing default

ZY-1 02D, 44528

Orbit data source: Space-Track

ZY-1 02D, 44528 is a payload satellite owned by CRESDA (CN) in SSO that was launched on Thu, 12 Sep 2019 UTC via a CHANG ZHENG 4B launch vehicle from the Taiyaun Space Center, China (TSC). Payload-class satellites include a variety of spacecraft equipped with specific instruments for various scientific and technological missions. These include communications satellites like Starlink; space stations such as the ISS; scientific satellites like the Hubble; Earth observation satellites from companies like Planet Labs, Umbra, and HawkEye 360; GPS; miniature CubeSats for education and research; and military/defense satellites.

Loading next visibility...
Identifier
44528, 2019-059A
Orbit
SSO
Country
Flag of CNCN / PRC
Related business
Manufacturer
CAST
Mission
Operational Civil Imaging
Bus & Motor
ZY, AOCS 20N
Mass
1,840 kg wet, ~1,700 kg dry
Launch date (UTC)
2019-09-12 (7 years ago)
Launch vehicle
CHANG ZHENG 4B
Launch site
Taiyaun Space Center, China (TSC)
Object type
Payload
Rocket body
Debris
Shape & HBR
Box + 1 Pan, Unknown HBR
Radar Cross Section
9.469 m², Large (>1 m²)

Expand to show TLE details & history
Last TLE update: 1 day ago

TLE from 1 day ago
0 ZY-1 02D
1 44528U 19059A   26172.52972017  .00000154  00000-0  68801-4 0  9995
2 44528  98.5862 233.9777 0003789  29.3667 330.7730 14.35615519354961
Epoch: 2026-06-21T12:42Z
TLE epoch observation values (Epoch: 2026-06-21T12:42:47.822Z)
Latitude
-0.00012°
Longitude
133.54978°
Altitude
773.597 km
Speed
7.468 km/s
True Right ascension
15h 35m 54s
True Declination
0° 00' 00"
Sunlit
Object was in full shadow at epoch
Visualization orbit readout
Latitude
Unknown
Longitude
Unknown
Altitude
Unknown
Speed
Unknown
Apparent Right ascension
Unknown
Apparent Declination
Unknown
Sunlit
N/A
Visualization observer readout
Local Sidereal Time
23:18:51
Azimuth
Unknown
Elevation
Unknown
Doppler factor
Unknown
Orbital elements
Apogee altitude
772.862 km
Perigee altitude
767.445 km
Semi-major axis
7,148.29 km
Eccentricity
0.00038
Inclination
98.5862°
RAAN
233.9777°
Arg. of periapsis
29.3667°
True anomaly
330.75179°
Mean anomaly
330.773°
Eccentric anomaly
330.7624°
Mean motion
3.5912 °/min
Orbital period
100.24 mins
BSTAR
0.000068801
Loading maneuver chart data...
Computing Atmospheric mass density...
Loading historical data...
Loading historical data...
Loading historical data...
Loading historical data...
Loading historical data...
Loading historical data...
Loading historical data...
Other satellites on launch #59 in the year 2019 (2019-09-12 UTC)

Documentation

Showing up to 5 results
|